Miscellaneous Local Product
Issued by NWS North Platte, NE

Home | Current Version | Previous Version | Text Only | Print | Product List | Glossary On
Versions: 1 2 3 4 5 6 7 8 9 10 11 12 13 14 15 16 17 18 19 20 21 22 23 24 25 26 27 28 29 30 31 32 33 34 35 36 37 38 39 40 41 42 43 44 45 46 47 48 49 50
000
AXUS43 KLBF 021010
MISLBF


WESTERN AND NORTH CENTRAL NEBRASKA HOURLY WEATHER ROUNDUP
NATIONAL WEATHER SERVICE NORTH PLATTE NE
500 AM CDT TUE JUN 02 2015

***STATIONS NOT REPORTING VARIABLES SUCH AS SKY/WEATHER OR
PRESSURE ARE PROVIDED BY THE NEBRASKA DEPARTMENT OF
ROADS...RAWS...AND APRS NETWORKS...AND ARE NOT UNDER
NATIONAL WEATHER SERVICE QUALITY CONTROL***

...OBSERVATIONS IN AND NEAR THE EASTERN PANHANDLE OF NEBRASKA...

CITY           SKY/WX    TMP DP  RH WIND       PRES   REMARKS
PINE RIDGE     PTCLDY    63  51  65 SW12      29.86R
CHADRON        PTCLDY    62  51  67 SW12      29.86R
ALLIANCE       PTCLDY    57  53  86 S7        29.90R
SIDNEY         PTCLDY    58  55  90 S9        29.95S
WHITECLAY        N/A     63  51  64 S20         N/A
CRESCENT LAKE    N/A     59  55  87 S8          N/A
BIG SPRINGS      N/A     63  56  78 S20         N/A
$$

...OBSERVATIONS IN NORTH CENTRAL NEBRASKA...

CITY           SKY/WX    TMP DP  RH WIND       PRES   REMARKS
THEDFORD       CLOUDY    66  56  70 S10       29.88F
AINSWORTH      CLOUDY    63  60  89 S9        29.86F
O`NEILL        CLOUDY    64  57  80 S14       29.91F
ORD            CLOUDY    63  57  81 SE7       29.92R
BROKEN BOW     LGT RAIN  65  60  84 S16G24    29.90R
BROWNLEE         N/A     68  54  60 S14         N/A
VALENTINE NWR    N/A     63  56  77 S8          N/A
SPRINGVIEW       N/A     63  59  87 CALM        N/A
HALSEY           N/A     68  52  55 S9G21       N/A
NEWPORT          N/A     63  60  88 S13         N/A
SARGENT          N/A     63  60  90 CALM        N/A
CHAMBERS         N/A     61  56  84 S6          N/A
EWING            N/A     62  57  83 S7G15       N/A
$$

...OBSERVATIONS IN SOUTHWEST NEBRASKA AND FAR NORTHEAST COLORADO...

CITY           SKY/WX    TMP DP  RH WIND       PRES   REMARKS
WRAY           FAIR      58  56  92 SE7       30.00S
IMPERIAL       CLOUDY    60  56  86 E8        29.96F
OGALLALA       CLOUDY    64  55  73 S14G26    29.85F THUNDER
NORTH PLATTE   CLOUDY    65  55  70 S16G23    29.88F
MCCOOK         CLOUDY    63  57  81 E10       29.92F
LEXINGTON      RAIN      63  62  96 S18       29.92F
PAXTON           N/A     65  56  73 SE24        N/A
GOTHENBURG       N/A     65  53  65 S20         N/A
CALLAWAY         N/A     63  60  91 S12         N/A
$$

...NORTH PLATTE AREA...

CITY           SKY/WX    TMP DP  RH WIND       PRES   REMARKS
AIRPORT        CLOUDY    65  55  70 S16G23    29.88F
DOWNTOWN         N/A     65  56  74 S12G21      N/A
$$

...SOME WEATHER OBSERVATIONS FROM AROUND THE REGION...

CITY           SKY/WX    TMP DP  RH WIND       PRES   REMARKS
DENVER         PTCLDY    62  45  53 SW14      29.97R
LARAMIE        CLEAR     48  42  80 SE9       30.07F
CHEYENNE       PTCLDY    50  46  86 W6        30.02F
SCOTTSBLUFF    CLOUDY    62  53  72 E10G22    29.87F
RAPID CITY     MOCLDY    57  53  86 SE13      29.80S
PIERRE         CLOUDY    64  60  87 SE10      29.77R
WINNER         FAIR      65  58  78 S13       29.82F
SIOUX FALLS    MOCLDY    60  51  72 S13G20    29.97F
OMAHA          CLOUDY    57  53  86 SE9       30.07R
GRAND ISLAND   CLOUDY    62  56  80 S12       29.99F
KANSAS CITY    CLOUDY    59  53  80 SE8       30.09F
WICHITA        MOCLDY    64  58  80 SE12      30.02F
HAYS           CLOUDY    63  54  72 SE12      29.96F
LIBERAL        CLEAR     64  61  88 S10       29.98S
GOODLAND       CLOUDY    60  54  80 E9        29.99F
$$



USA.gov is the U.S. government's official web portal to all federal, state and local government web resources and services.